Year,Month,Day,Hour,Minute,Value (Times are PST for windgust in km/hr)
2021,10,25,00,00,30.60
2021,10,25,00,01,22.50
2021,10,25,00,02,27.40
2021,10,25,00,03,25.70
2021,10,25,00,04,22.50
2021,10,25,00,05,19.30
2021,10,25,00,06,35.40
2021,10,25,00,07,30.60
2021,10,25,00,08,33.80
2021,10,25,00,09,30.60
2021,10,25,00,10,25.70
2021,10,25,00,11,16.10
2021,10,25,00,12,17.70
2021,10,25,00,13,25.70
2021,10,25,00,14,25.70
2021,10,25,00,15,25.70
2021,10,25,00,16,45.10
2021,10,25,00,17,37.00
2021,10,25,00,18,30.60
2021,10,25,00,19,30.60
2021,10,25,00,20,17.70
2021,10,25,00,21,35.40
2021,10,25,00,22,35.40
2021,10,25,00,23,29.00
2021,10,25,00,24,35.40
2021,10,25,00,25,22.50
2021,10,25,00,26,27.40
2021,10,25,00,27,27.40
2021,10,25,00,28,32.20
2021,10,25,00,29,27.40
2021,10,25,00,30,27.40
2021,10,25,00,31,29.00
2021,10,25,00,32,30.60
2021,10,25,00,33,27.40
2021,10,25,00,34,30.60
2021,10,25,00,35,35.40
2021,10,25,00,36,27.40
2021,10,25,00,37,25.70
2021,10,25,00,38,29.00
2021,10,25,00,39,25.70
2021,10,25,00,40,30.60
2021,10,25,00,41,22.50
2021,10,25,00,42,25.70
2021,10,25,00,43,38.60
2021,10,25,00,44,20.90
2021,10,25,00,45,22.50
2021,10,25,00,46,35.40
2021,10,25,00,47,30.60
2021,10,25,00,48,32.20
2021,10,25,00,49,16.10
2021,10,25,00,50,29.00
2021,10,25,00,51,29.00
2021,10,25,00,52,33.80
2021,10,25,00,53,27.40
2021,10,25,00,54,24.20
2021,10,25,00,55,27.40
2021,10,25,00,56,17.70
2021,10,25,00,57,19.30
2021,10,25,00,58,24.20
2021,10,25,00,59,41.80
2021,10,25,01,00,24.20
2021,10,25,01,01,29.00
2021,10,25,01,02,20.90
2021,10,25,01,03,22.50
2021,10,25,01,04,25.70
2021,10,25,01,05,33.80
2021,10,25,01,06,19.30
2021,10,25,01,07,19.30
2021,10,25,01,08,25.70
2021,10,25,01,09,16.10
2021,10,25,01,10,22.50
2021,10,25,01,11,41.80
2021,10,25,01,12,37.00
2021,10,25,01,13,30.60
2021,10,25,01,14,35.40
2021,10,25,01,15,27.40
2021,10,25,01,16,19.30
2021,10,25,01,17,24.20
2021,10,25,01,18,20.90
2021,10,25,01,19,24.20
2021,10,25,01,20,33.80
2021,10,25,01,21,40.20
2021,10,25,01,22,38.60
2021,10,25,01,23,37.00
2021,10,25,01,24,29.00
2021,10,25,01,25,24.20
2021,10,25,01,26,35.40
2021,10,25,01,27,30.60
2021,10,25,01,28,48.30
2021,10,25,01,29,30.60
2021,10,25,01,30,35.40
2021,10,25,01,31,24.20
2021,10,25,01,32,35.40
2021,10,25,01,33,24.20
2021,10,25,01,34,37.00
2021,10,25,01,35,35.40
2021,10,25,01,36,25.70
2021,10,25,01,37,35.40
2021,10,25,01,38,25.70
2021,10,25,01,39,35.40
2021,10,25,01,40,37.00
2021,10,25,01,41,25.70
2021,10,25,01,42,19.30
2021,10,25,01,43,35.40
2021,10,25,01,44,29.00
2021,10,25,01,45,22.50
2021,10,25,01,46,37.00
2021,10,25,01,47,33.80
2021,10,25,01,48,45.10
2021,10,25,01,49,25.70
2021,10,25,01,50,40.20
2021,10,25,01,51,40.20
2021,10,25,01,52,27.40
2021,10,25,01,53,22.50
2021,10,25,01,54,37.00
2021,10,25,01,55,40.20
2021,10,25,01,56,33.80
2021,10,25,01,57,30.60
2021,10,25,01,58,29.00
2021,10,25,01,59,32.20
2021,10,25,02,00,43.50
2021,10,25,02,01,49.90
2021,10,25,02,02,38.60
2021,10,25,02,03,32.20
2021,10,25,02,04,33.80
2021,10,25,02,05,32.20
2021,10,25,02,06,27.40
2021,10,25,02,07,29.00
2021,10,25,02,08,38.60
2021,10,25,02,09,25.70
2021,10,25,02,10,32.20
2021,10,25,02,11,33.80
2021,10,25,02,12,29.00
2021,10,25,02,13,41.80
2021,10,25,02,14,30.60
2021,10,25,02,15,30.60
2021,10,25,02,16,37.00
2021,10,25,02,17,35.40
2021,10,25,02,18,30.60
2021,10,25,02,19,37.00
2021,10,25,02,20,45.10
2021,10,25,02,21,37.00
2021,10,25,02,22,30.60
2021,10,25,02,23,33.80
2021,10,25,02,24,41.80
2021,10,25,02,25,38.60
2021,10,25,02,26,37.00
2021,10,25,02,27,40.20
2021,10,25,02,28,45.10
2021,10,25,02,29,30.60
2021,10,25,02,30,27.40
2021,10,25,02,31,30.60
2021,10,25,02,32,27.40
2021,10,25,02,33,45.10
2021,10,25,02,34,57.90
2021,10,25,02,35,24.20
2021,10,25,02,36,27.40
2021,10,25,02,37,37.00
2021,10,25,02,38,40.20
2021,10,25,02,39,29.00
2021,10,25,02,40,30.60
2021,10,25,02,41,38.60
2021,10,25,02,42,30.60
2021,10,25,02,43,30.60
2021,10,25,02,44,22.50
2021,10,25,02,45,41.80
2021,10,25,02,46,35.40
2021,10,25,02,47,29.00
2021,10,25,02,48,33.80
2021,10,25,02,49,24.20
2021,10,25,02,50,32.20
2021,10,25,02,51,40.20
2021,10,25,02,52,45.10
2021,10,25,02,53,25.70
2021,10,25,02,54,25.70
2021,10,25,02,55,24.20
2021,10,25,02,56,33.80
2021,10,25,02,57,20.90
2021,10,25,02,58,17.70
2021,10,25,02,59,25.70
2021,10,25,03,00,27.40
2021,10,25,03,01,32.20
2021,10,25,03,02,24.20
2021,10,25,03,03,37.00
2021,10,25,03,04,20.90
2021,10,25,03,05,40.20
2021,10,25,03,06,30.60
2021,10,25,03,07,25.70
2021,10,25,03,08,27.40
2021,10,25,03,09,22.50
2021,10,25,03,10,22.50
2021,10,25,03,11,33.80
2021,10,25,03,12,33.80
2021,10,25,03,13,29.00
2021,10,25,03,14,32.20
2021,10,25,03,15,32.20
2021,10,25,03,16,25.70
2021,10,25,03,17,22.50
2021,10,25,03,18,22.50
2021,10,25,03,19,25.70
2021,10,25,03,20,33.80
2021,10,25,03,21,27.40
2021,10,25,03,22,24.20
2021,10,25,03,23,19.30
2021,10,25,03,24,33.80
2021,10,25,03,25,33.80
2021,10,25,03,26,32.20
2021,10,25,03,27,30.60
2021,10,25,03,28,27.40
2021,10,25,03,29,25.70
2021,10,25,03,30,29.00
2021,10,25,03,31,30.60
2021,10,25,03,32,25.70
2021,10,25,03,33,33.80
2021,10,25,03,34,25.70
2021,10,25,03,35,19.30
2021,10,25,03,36,29.00
2021,10,25,03,37,29.00
2021,10,25,03,38,30.60
2021,10,25,03,39,32.20
2021,10,25,03,40,35.40
2021,10,25,03,41,20.90
2021,10,25,03,42,20.90
2021,10,25,03,43,41.80
2021,10,25,03,44,35.40
2021,10,25,03,45,32.20
2021,10,25,03,46,38.60
2021,10,25,03,47,25.70
2021,10,25,03,48,32.20
2021,10,25,03,49,27.40
2021,10,25,03,50,20.90
2021,10,25,03,51,30.60
2021,10,25,03,52,29.00
2021,10,25,03,53,25.70
2021,10,25,03,54,25.70
2021,10,25,03,55,43.50
2021,10,25,03,56,33.80
2021,10,25,03,57,30.60
2021,10,25,03,58,24.20
2021,10,25,03,59,35.40
2021,10,25,04,00,35.40
2021,10,25,04,01,25.70
2021,10,25,04,02,22.50
2021,10,25,04,03,22.50
2021,10,25,04,04,24.20
2021,10,25,04,08,22.50
2021,10,25,04,09,29.00
2021,10,25,04,10,20.90
2021,10,25,04,11,24.20
2021,10,25,04,12,25.70
2021,10,25,04,13,35.40
2021,10,25,04,14,29.00
2021,10,25,04,15,29.00
2021,10,25,04,16,27.40
2021,10,25,04,17,25.70
2021,10,25,04,18,25.70
2021,10,25,04,19,17.70
2021,10,25,04,20,33.80
2021,10,25,04,21,27.40
2021,10,25,04,22,29.00
2021,10,25,04,23,29.00
2021,10,25,04,24,27.40
2021,10,25,04,25,22.50
2021,10,25,04,26,27.40
2021,10,25,04,27,32.20
2021,10,25,04,28,20.90
2021,10,25,04,29,20.90
2021,10,25,04,30,30.60
2021,10,25,04,31,35.40
2021,10,25,04,32,30.60
2021,10,25,04,33,24.20
2021,10,25,04,34,35.40
2021,10,25,04,35,32.20
2021,10,25,04,36,25.70
2021,10,25,04,37,32.20
2021,10,25,04,38,27.40
2021,10,25,04,39,25.70
2021,10,25,04,40,29.00
2021,10,25,04,41,40.20
2021,10,25,04,42,40.20
2021,10,25,04,43,38.60
2021,10,25,04,44,30.60
2021,10,25,04,45,25.70
2021,10,25,04,46,43.50
2021,10,25,04,47,24.20
2021,10,25,04,48,30.60
2021,10,25,04,49,33.80
2021,10,25,04,50,20.90
2021,10,25,04,51,24.20
2021,10,25,04,52,30.60
2021,10,25,04,53,35.40
2021,10,25,04,54,25.70
2021,10,25,04,55,22.50
2021,10,25,04,56,25.70
2021,10,25,04,57,16.10
2021,10,25,04,58,30.60
2021,10,25,04,59,30.60
2021,10,25,05,00,38.60
2021,10,25,05,01,37.00
2021,10,25,05,02,32.20
2021,10,25,05,03,25.70
2021,10,25,05,04,29.00
2021,10,25,05,05,25.70
2021,10,25,05,06,35.40
2021,10,25,05,07,22.50
2021,10,25,05,08,25.70
2021,10,25,05,09,29.00
2021,10,25,05,10,25.70
2021,10,25,05,11,19.30
2021,10,25,05,12,17.70
2021,10,25,05,13,20.90
2021,10,25,05,14,30.60
2021,10,25,05,15,27.40
2021,10,25,05,16,30.60
2021,10,25,05,17,30.60
2021,10,25,05,18,40.20
2021,10,25,05,19,32.20
2021,10,25,05,20,33.80
2021,10,25,05,21,25.70
2021,10,25,05,22,37.00
2021,10,25,05,23,24.20
2021,10,25,05,24,19.30
2021,10,25,05,25,25.70
2021,10,25,05,26,37.00
2021,10,25,05,27,24.20
2021,10,25,05,28,22.50
2021,10,25,05,29,24.20
2021,10,25,05,30,40.20
2021,10,25,05,31,29.00
2021,10,25,05,32,24.20
2021,10,25,05,33,29.00
2021,10,25,05,34,29.00
2021,10,25,05,35,43.50
2021,10,25,05,36,33.80
2021,10,25,05,37,37.00
2021,10,25,05,38,32.20
2021,10,25,05,39,29.00
2021,10,25,05,40,38.60
2021,10,25,05,41,30.60
2021,10,25,05,42,25.70
2021,10,25,05,43,25.70
2021,10,25,05,44,22.50
2021,10,25,05,45,33.80
2021,10,25,05,46,20.90
2021,10,25,05,47,30.60
2021,10,25,05,48,38.60
2021,10,25,05,49,29.00
2021,10,25,05,50,22.50
2021,10,25,05,51,30.60
2021,10,25,05,52,33.80
2021,10,25,05,53,32.20
2021,10,25,05,54,25.70
2021,10,25,05,55,30.60
2021,10,25,05,56,29.00
2021,10,25,05,57,19.30
2021,10,25,05,58,14.50
2021,10,25,05,59,17.70
2021,10,25,06,00,33.80
2021,10,25,06,01,30.60
2021,10,25,06,02,27.40
2021,10,25,06,03,24.20
2021,10,25,06,04,29.00
2021,10,25,06,05,46.70
2021,10,25,06,06,27.40
2021,10,25,06,07,24.20
2021,10,25,06,08,22.50
2021,10,25,06,09,22.50
2021,10,25,06,10,24.20
2021,10,25,06,11,19.30
2021,10,25,06,12,40.20
2021,10,25,06,13,24.20
2021,10,25,06,14,32.20
2021,10,25,06,15,24.20
2021,10,25,06,16,22.50
2021,10,25,06,17,40.20
2021,10,25,06,18,24.20
2021,10,25,06,19,25.70
2021,10,25,06,20,24.20
2021,10,25,06,21,30.60
2021,10,25,06,22,25.70
2021,10,25,06,23,30.60
2021,10,25,06,24,37.00
2021,10,25,06,25,25.70
2021,10,25,06,26,25.70
2021,10,25,06,27,27.40
2021,10,25,06,28,25.70
2021,10,25,06,29,32.20
2021,10,25,06,30,29.00
2021,10,25,06,31,35.40
2021,10,25,06,32,33.80
2021,10,25,06,33,29.00
2021,10,25,06,34,30.60
2021,10,25,06,35,33.80
2021,10,25,06,36,33.80
2021,10,25,06,37,29.00
2021,10,25,06,38,29.00
2021,10,25,06,39,25.70
2021,10,25,06,40,30.60
2021,10,25,06,41,37.00
2021,10,25,06,42,22.50
2021,10,25,06,43,22.50
2021,10,25,06,44,33.80
2021,10,25,06,45,38.60
2021,10,25,06,46,27.40
2021,10,25,06,47,27.40
2021,10,25,06,48,33.80
2021,10,25,06,49,20.90
2021,10,25,06,50,35.40
2021,10,25,06,51,30.60
2021,10,25,06,52,24.20
2021,10,25,06,53,38.60
2021,10,25,06,54,24.20
2021,10,25,06,55,41.80
2021,10,25,06,56,38.60
2021,10,25,06,57,30.60
2021,10,25,06,58,25.70
2021,10,25,06,59,25.70
2021,10,25,07,00,20.90
2021,10,25,07,01,29.00
2021,10,25,07,02,19.30
2021,10,25,07,03,17.70
2021,10,25,07,04,22.50
2021,10,25,07,05,30.60
2021,10,25,07,06,24.20
2021,10,25,07,07,19.30
2021,10,25,07,08,40.20
2021,10,25,07,09,27.40
2021,10,25,07,10,20.90
2021,10,25,07,11,20.90
2021,10,25,07,12,29.00
2021,10,25,07,13,35.40
2021,10,25,07,14,33.80
2021,10,25,07,15,29.00
2021,10,25,07,16,30.60
2021,10,25,07,17,22.50
2021,10,25,07,18,32.20
2021,10,25,07,19,25.70
2021,10,25,07,20,30.60
2021,10,25,07,21,22.50
2021,10,25,07,22,24.20
2021,10,25,07,23,19.30
2021,10,25,07,24,27.40
2021,10,25,07,25,45.10
2021,10,25,07,26,37.00
2021,10,25,07,27,30.60
2021,10,25,07,28,22.50
2021,10,25,07,29,29.00
2021,10,25,07,30,30.60
2021,10,25,07,31,29.00
2021,10,25,07,32,32.20
2021,10,25,07,33,22.50
2021,10,25,07,34,25.70
2021,10,25,07,35,25.70
2021,10,25,07,36,33.80
2021,10,25,07,37,33.80
2021,10,25,07,38,27.40
2021,10,25,07,39,29.00
2021,10,25,07,40,38.60
2021,10,25,07,41,33.80
2021,10,25,07,42,32.20
2021,10,25,07,43,27.40
2021,10,25,07,44,27.40
2021,10,25,07,45,24.20
2021,10,25,07,46,17.70
2021,10,25,07,47,16.10
2021,10,25,07,48,25.70
2021,10,25,07,49,25.70
2021,10,25,07,50,49.90
2021,10,25,07,51,20.90
2021,10,25,07,52,32.20
2021,10,25,07,53,20.90
2021,10,25,07,54,24.20
2021,10,25,07,55,29.00
2021,10,25,07,56,25.70
2021,10,25,07,57,29.00
2021,10,25,07,58,24.20
2021,10,25,07,59,27.40
2021,10,25,08,00,22.50
2021,10,25,08,01,22.50
2021,10,25,08,02,22.50
2021,10,25,08,03,22.50
2021,10,25,08,04,22.50
2021,10,25,08,05,16.10
2021,10,25,08,06,19.30
2021,10,25,08,07,22.50
2021,10,25,08,08,19.30
2021,10,25,08,09,19.30
2021,10,25,08,10,24.20
2021,10,25,08,11,20.90
2021,10,25,08,12,22.50
2021,10,25,08,13,20.90
2021,10,25,08,14,24.20
2021,10,25,08,15,19.30
2021,10,25,08,16,22.50
2021,10,25,08,17,27.40
2021,10,25,08,18,16.10
2021,10,25,08,19,17.70
2021,10,25,08,20,19.30
2021,10,25,08,21,27.40
2021,10,25,08,22,24.20
2021,10,25,08,23,16.10
2021,10,25,08,24,27.40
2021,10,25,08,25,24.20
2021,10,25,08,26,24.20
2021,10,25,08,27,22.50
2021,10,25,08,28,20.90
2021,10,25,08,29,35.40
2021,10,25,08,30,22.50
2021,10,25,08,31,40.20
2021,10,25,08,32,16.10
2021,10,25,08,33,20.90
2021,10,25,08,34,20.90
2021,10,25,08,35,24.20
2021,10,25,08,36,22.50
2021,10,25,08,37,20.90
2021,10,25,08,38,25.70
2021,10,25,08,39,25.70
2021,10,25,08,40,22.50
2021,10,25,08,41,25.70
2021,10,25,08,42,19.30
2021,10,25,08,43,32.20
2021,10,25,08,44,20.90
2021,10,25,08,45,22.50
2021,10,25,08,46,24.20
2021,10,25,08,47,25.70
2021,10,25,08,48,20.90
2021,10,25,08,49,25.70
2021,10,25,08,50,24.20
2021,10,25,08,51,22.50
2021,10,25,08,52,22.50
2021,10,25,08,53,27.40
2021,10,25,08,54,19.30
2021,10,25,08,55,24.20
2021,10,25,08,56,27.40
2021,10,25,08,57,16.10
2021,10,25,08,58,24.20
2021,10,25,08,59,19.30
2021,10,25,09,00,22.50
2021,10,25,09,01,16.10
2021,10,25,09,02,17.70
2021,10,25,09,03,25.70
2021,10,25,09,04,20.90
2021,10,25,09,05,25.70
2021,10,25,09,06,30.60
2021,10,25,09,07,20.90
2021,10,25,09,08,22.50
2021,10,25,09,09,27.40
2021,10,25,09,10,37.00
2021,10,25,09,11,24.20
2021,10,25,09,12,24.20
2021,10,25,09,13,35.40
2021,10,25,09,14,22.50
2021,10,25,09,15,24.20
2021,10,25,09,16,29.00
2021,10,25,09,17,22.50
2021,10,25,09,18,20.90
2021,10,25,09,19,33.80
2021,10,25,09,20,32.20
2021,10,25,09,21,30.60
2021,10,25,09,22,22.50
2021,10,25,09,23,24.20
2021,10,25,09,24,29.00
2021,10,25,09,25,24.20
2021,10,25,09,26,25.70
2021,10,25,09,27,33.80
2021,10,25,09,28,27.40
2021,10,25,09,29,27.40
2021,10,25,09,30,22.50
2021,10,25,09,31,30.60
2021,10,25,09,32,30.60
2021,10,25,09,33,19.30
2021,10,25,09,34,25.70
2021,10,25,09,35,20.90
2021,10,25,09,36,22.50
2021,10,25,09,37,25.70
2021,10,25,09,38,30.60
2021,10,25,09,39,33.80
2021,10,25,09,40,19.30
2021,10,25,09,41,20.90
2021,10,25,09,42,17.70
2021,10,25,09,43,24.20
2021,10,25,09,44,22.50
2021,10,25,09,45,20.90
2021,10,25,09,46,20.90
2021,10,25,09,47,24.20
2021,10,25,09,48,22.50
2021,10,25,09,49,19.30
2021,10,25,09,50,20.90
2021,10,25,09,51,19.30
2021,10,25,09,52,16.10
2021,10,25,09,53,22.50
2021,10,25,09,54,30.60
2021,10,25,09,55,24.20
2021,10,25,09,56,27.40
2021,10,25,09,57,14.50
2021,10,25,09,58,14.50
2021,10,25,09,59,14.50
2021,10,25,10,00,40.20
2021,10,25,10,01,33.80
2021,10,25,10,02,22.50
2021,10,25,10,03,41.80
2021,10,25,10,04,27.40
2021,10,25,10,05,32.20
2021,10,25,10,06,19.30
2021,10,25,10,07,19.30
2021,10,25,10,08,22.50
2021,10,25,10,09,38.60
2021,10,25,10,10,22.50
2021,10,25,10,11,27.40
2021,10,25,10,12,25.70
2021,10,25,10,13,19.30
2021,10,25,10,14,40.20
2021,10,25,10,15,30.60
2021,10,25,10,16,17.70
2021,10,25,10,17,20.90
2021,10,25,10,18,20.90
2021,10,25,10,19,30.60
2021,10,25,10,20,29.00
2021,10,25,10,21,17.70
2021,10,25,10,22,24.20
2021,10,25,10,23,25.70
2021,10,25,10,24,27.40
2021,10,25,10,25,27.40
2021,10,25,10,26,30.60
2021,10,25,10,27,22.50
2021,10,25,10,28,20.90
2021,10,25,10,29,24.20
2021,10,25,10,30,24.20
2021,10,25,10,31,30.60
2021,10,25,10,32,33.80
2021,10,25,10,33,22.50
2021,10,25,10,34,38.60
2021,10,25,10,35,43.50
2021,10,25,10,36,27.40
2021,10,25,10,37,20.90
2021,10,25,10,38,32.20
2021,10,25,10,39,27.40
2021,10,25,10,40,29.00
2021,10,25,10,41,22.50
2021,10,25,10,42,30.60
2021,10,25,10,43,24.20
2021,10,25,10,44,22.50
2021,10,25,10,45,20.90
2021,10,25,10,46,22.50
2021,10,25,10,47,43.50
2021,10,25,10,48,29.00
2021,10,25,10,49,29.00
2021,10,25,10,50,24.20
2021,10,25,10,51,32.20
2021,10,25,10,52,27.40
2021,10,25,10,53,33.80
2021,10,25,10,54,16.10
2021,10,25,10,55,22.50
2021,10,25,10,56,38.60
2021,10,25,10,57,25.70
2021,10,25,10,58,29.00
2021,10,25,10,59,30.60
2021,10,25,11,00,38.60
2021,10,25,11,01,33.80
2021,10,25,11,02,33.80
2021,10,25,11,03,40.20
2021,10,25,11,04,30.60
2021,10,25,11,05,27.40
2021,10,25,11,06,41.80
2021,10,25,11,07,30.60
2021,10,25,11,08,35.40
2021,10,25,11,09,24.20
2021,10,25,11,10,35.40
2021,10,25,11,11,38.60
2021,10,25,11,12,29.00
2021,10,25,11,13,30.60
2021,10,25,11,14,25.70
2021,10,25,11,15,32.20
2021,10,25,11,16,24.20
2021,10,25,11,17,40.20
2021,10,25,11,18,35.40
2021,10,25,11,19,22.50
2021,10,25,11,20,29.00
2021,10,25,11,21,35.40
2021,10,25,11,22,33.80
2021,10,25,11,23,40.20
2021,10,25,11,24,22.50
2021,10,25,11,25,24.20
2021,10,25,11,26,27.40
2021,10,25,11,27,40.20
2021,10,25,11,28,35.40
2021,10,25,11,29,25.70
2021,10,25,11,30,30.60
2021,10,25,11,31,22.50
2021,10,25,11,32,25.70
2021,10,25,11,33,25.70
2021,10,25,11,34,37.00
2021,10,25,11,35,25.70
2021,10,25,11,36,35.40
2021,10,25,11,37,27.40
2021,10,25,11,38,35.40
2021,10,25,11,39,29.00
2021,10,25,11,40,35.40
2021,10,25,11,41,25.70
2021,10,25,11,42,22.50
2021,10,25,11,43,22.50
2021,10,25,11,44,17.70
2021,10,25,11,45,33.80
2021,10,25,11,46,22.50
2021,10,25,11,47,24.20
2021,10,25,11,48,40.20
2021,10,25,11,49,19.30
2021,10,25,11,50,35.40
2021,10,25,11,51,33.80
2021,10,25,11,52,22.50
2021,10,25,11,53,22.50
2021,10,25,11,54,17.70
2021,10,25,11,55,22.50
2021,10,25,11,56,27.40
2021,10,25,11,57,20.90
2021,10,25,11,58,27.40
2021,10,25,11,59,27.40
2021,10,25,12,00,32.20
2021,10,25,12,01,35.40
2021,10,25,12,02,27.40
2021,10,25,12,03,19.30
2021,10,25,12,04,29.00
2021,10,25,12,05,24.20
2021,10,25,12,06,25.70
2021,10,25,12,07,30.60
2021,10,25,12,08,17.70
2021,10,25,12,09,24.20
2021,10,25,12,10,22.50
2021,10,25,12,11,17.70
2021,10,25,12,12,24.20
2021,10,25,12,13,25.70
2021,10,25,12,14,24.20
2021,10,25,12,15,20.90
2021,10,25,12,16,24.20
2021,10,25,12,17,27.40
2021,10,25,12,18,20.90
2021,10,25,12,19,27.40
2021,10,25,12,20,20.90
2021,10,25,12,21,27.40
2021,10,25,12,22,17.70
2021,10,25,12,23,25.70
2021,10,25,12,24,32.20
2021,10,25,12,25,19.30
2021,10,25,12,26,22.50
2021,10,25,12,27,19.30
2021,10,25,12,28,22.50
2021,10,25,12,29,29.00
2021,10,25,12,30,29.00
2021,10,25,12,31,35.40
2021,10,25,12,32,25.70
2021,10,25,12,33,19.30
2021,10,25,12,34,19.30
2021,10,25,12,35,19.30
2021,10,25,12,36,19.30
2021,10,25,12,37,22.50
2021,10,25,12,38,22.50
2021,10,25,12,39,20.90
2021,10,25,12,40,30.60
2021,10,25,12,41,27.40
2021,10,25,12,42,20.90
2021,10,25,12,43,19.30
2021,10,25,12,44,19.30
2021,10,25,12,45,22.50
2021,10,25,12,46,20.90
2021,10,25,12,47,22.50
2021,10,25,12,48,19.30
2021,10,25,12,49,17.70
2021,10,25,12,50,19.30
2021,10,25,12,51,14.50
2021,10,25,12,52,14.50
2021,10,25,12,53,27.40
2021,10,25,12,54,14.50
2021,10,25,12,55,24.20
2021,10,25,12,56,19.30
2021,10,25,12,57,30.60
2021,10,25,12,58,24.20
2021,10,25,12,59,24.20
2021,10,25,13,00,22.50
2021,10,25,13,01,19.30
2021,10,25,13,02,16.10
2021,10,25,13,03,22.50
2021,10,25,13,04,22.50
2021,10,25,13,05,14.50
2021,10,25,13,06,19.30
2021,10,25,13,07,25.70
2021,10,25,13,08,22.50
2021,10,25,13,09,17.70
2021,10,25,13,10,32.20
2021,10,25,13,11,14.50
2021,10,25,13,12,24.20
2021,10,25,13,13,19.30
2021,10,25,13,14,14.50
2021,10,25,13,15,17.70
2021,10,25,13,16,14.50
2021,10,25,13,17,17.70
2021,10,25,13,18,20.90
2021,10,25,13,19,19.30
2021,10,25,13,20,22.50
2021,10,25,13,21,16.10
2021,10,25,13,22,9.60
2021,10,25,13,23,19.30
2021,10,25,13,24,19.30
2021,10,25,13,25,24.20
2021,10,25,13,26,14.50
2021,10,25,13,27,19.30
2021,10,25,13,28,12.90
2021,10,25,13,29,16.10
2021,10,25,13,30,19.30
2021,10,25,13,31,19.30
2021,10,25,13,32,19.30
2021,10,25,13,33,17.70
2021,10,25,13,34,11.30
2021,10,25,13,35,12.90
2021,10,25,13,36,16.10
2021,10,25,13,37,20.90
2021,10,25,13,38,17.70
2021,10,25,13,39,12.90
2021,10,25,13,40,14.50
2021,10,25,13,41,17.70
2021,10,25,13,42,17.70
2021,10,25,13,43,19.30
2021,10,25,13,44,11.30
2021,10,25,13,45,19.30
2021,10,25,13,46,8.10
2021,10,25,13,47,14.50
2021,10,25,13,48,16.10
2021,10,25,13,49,17.70
2021,10,25,13,50,16.10
2021,10,25,13,51,29.00
2021,10,25,13,52,11.30
2021,10,25,13,53,12.90
2021,10,25,13,54,17.70
2021,10,25,13,55,9.60
2021,10,25,13,56,16.10
2021,10,25,13,57,12.90
2021,10,25,13,58,14.50
2021,10,25,13,59,11.30
2021,10,25,14,00,11.30
2021,10,25,14,01,9.60
2021,10,25,14,02,9.60
2021,10,25,14,03,12.90
2021,10,25,14,04,12.90
2021,10,25,14,05,14.50
2021,10,25,14,06,14.50
2021,10,25,14,07,11.30
2021,10,25,14,08,14.50
2021,10,25,14,09,19.30
2021,10,25,14,10,16.10
2021,10,25,14,11,11.30
2021,10,25,14,12,11.30
2021,10,25,14,13,20.90
2021,10,25,14,14,12.90
2021,10,25,14,15,14.50
2021,10,25,14,16,22.50
2021,10,25,14,17,22.50
2021,10,25,14,18,12.90
2021,10,25,14,19,14.50
2021,10,25,14,20,20.90
2021,10,25,14,21,9.60
2021,10,25,14,22,16.10
2021,10,25,14,23,16.10
2021,10,25,14,24,16.10
2021,10,25,14,25,12.90
2021,10,25,14,26,11.30
2021,10,25,14,27,9.60
2021,10,25,14,28,8.10
2021,10,25,14,29,9.60
2021,10,25,14,30,3.20
2021,10,25,14,31,4.80
2021,10,25,14,32,9.60
2021,10,25,14,33,12.90
2021,10,25,14,34,12.90
2021,10,25,14,35,16.10
2021,10,25,14,36,22.50
2021,10,25,14,37,19.30
2021,10,25,14,38,14.50
2021,10,25,14,39,11.30
2021,10,25,14,40,11.30
2021,10,25,14,41,6.40
2021,10,25,14,42,3.20
2021,10,25,14,43,1.60
2021,10,25,14,45,1.60
2021,10,25,14,46,8.10
2021,10,25,14,47,4.80
2021,10,25,14,48,6.40
2021,10,25,14,49,8.10
2021,10,25,14,50,4.80
2021,10,25,14,51,4.80
2021,10,25,14,52,8.10
2021,10,25,14,53,4.80
2021,10,25,14,54,4.80
2021,10,25,14,55,6.40
2021,10,25,14,56,4.80
2021,10,25,14,57,4.80
2021,10,25,14,58,11.30
2021,10,25,14,59,14.50
2021,10,25,15,00,8.10
2021,10,25,15,01,9.60
2021,10,25,15,02,9.60
2021,10,25,15,03,9.60
2021,10,25,15,04,14.50
2021,10,25,15,05,11.30
2021,10,25,15,06,9.60
2021,10,25,15,07,14.50
2021,10,25,15,08,16.10
2021,10,25,15,09,14.50
2021,10,25,15,10,14.50
2021,10,25,15,11,24.20
2021,10,25,15,12,16.10
2021,10,25,15,13,19.30
2021,10,25,15,14,14.50
2021,10,25,15,15,12.90
2021,10,25,15,16,11.30
2021,10,25,15,17,11.30
2021,10,25,15,18,11.30
2021,10,25,15,19,9.60
2021,10,25,15,20,8.10
2021,10,25,15,21,19.30
2021,10,25,15,22,14.50
2021,10,25,15,23,9.60
2021,10,25,15,24,6.40
2021,10,25,15,25,9.60
2021,10,25,15,26,9.60
2021,10,25,15,27,12.90
2021,10,25,15,28,9.60
2021,10,25,15,29,6.40
2021,10,25,15,30,9.60
2021,10,25,15,31,3.20
2021,10,25,15,32,6.40
2021,10,25,15,33,6.40
2021,10,25,15,34,4.80
2021,10,25,15,35,6.40
2021,10,25,15,36,4.80
2021,10,25,15,37,6.40
2021,10,25,15,38,8.10
2021,10,25,15,39,8.10
2021,10,25,15,40,12.90
2021,10,25,15,41,9.60
2021,10,25,15,42,8.10
2021,10,25,15,43,8.10
2021,10,25,15,44,4.80
2021,10,25,15,45,4.80
2021,10,25,15,46,6.40
2021,10,25,15,47,9.60
2021,10,25,15,48,4.80
2021,10,25,15,49,8.10
2021,10,25,15,50,8.10
2021,10,25,15,51,3.20
2021,10,25,15,52,4.80
2021,10,25,15,53,3.20
2021,10,25,15,54,1.60
2021,10,25,15,55,1.60
2021,10,25,15,56,1.60
2021,10,25,15,57,1.60
2021,10,25,16,00,1.60
2021,10,25,16,01,4.80
2021,10,25,16,02,8.10
2021,10,25,16,03,8.10
2021,10,25,16,04,4.80
2021,10,25,16,05,3.20
2021,10,25,16,06,4.80
2021,10,25,16,07,4.80
2021,10,25,16,08,6.40
2021,10,25,16,09,6.40
2021,10,25,16,10,6.40
2021,10,25,16,11,4.80
2021,10,25,16,12,1.60
2021,10,25,16,13,4.80
2021,10,25,16,14,6.40
2021,10,25,16,15,8.10
2021,10,25,16,16,6.40
2021,10,25,16,17,6.40
2021,10,25,16,18,6.40
2021,10,25,16,19,4.80
2021,10,25,16,20,4.80
2021,10,25,16,21,8.10
2021,10,25,16,22,3.20
2021,10,25,16,23,4.80
2021,10,25,16,24,4.80
2021,10,25,16,25,6.40
2021,10,25,16,26,8.10
2021,10,25,16,27,9.60
2021,10,25,16,28,9.60
2021,10,25,16,29,9.60
2021,10,25,16,30,6.40
2021,10,25,16,31,6.40
2021,10,25,16,32,6.40
2021,10,25,16,33,6.40
2021,10,25,16,34,8.10
2021,10,25,16,35,4.80
2021,10,25,16,36,9.60
2021,10,25,16,37,9.60
2021,10,25,16,38,11.30
2021,10,25,16,39,9.60
2021,10,25,16,40,8.10
2021,10,25,16,41,8.10
2021,10,25,16,42,8.10
2021,10,25,16,43,8.10
2021,10,25,16,44,9.60
2021,10,25,16,45,11.30
2021,10,25,16,46,8.10
2021,10,25,16,47,11.30
2021,10,25,16,48,11.30
2021,10,25,16,49,11.30
2021,10,25,16,50,6.40
2021,10,25,16,51,9.60
2021,10,25,16,52,9.60
2021,10,25,16,53,14.50
2021,10,25,16,54,9.60
2021,10,25,16,55,11.30
2021,10,25,16,56,8.10
2021,10,25,16,57,9.60
2021,10,25,16,58,17.70
2021,10,25,16,59,11.30
2021,10,25,17,00,6.40
2021,10,25,17,01,9.60
2021,10,25,17,02,9.60
2021,10,25,17,03,8.10
2021,10,25,17,04,4.80
2021,10,25,17,05,6.40
2021,10,25,17,06,4.80
2021,10,25,17,07,4.80
2021,10,25,17,08,4.80
2021,10,25,17,09,4.80
2021,10,25,17,10,4.80
2021,10,25,17,11,6.40
2021,10,25,17,12,6.40
2021,10,25,17,13,4.80
2021,10,25,17,14,4.80
2021,10,25,17,15,3.20
2021,10,25,17,16,6.40
2021,10,25,17,17,6.40
2021,10,25,17,18,6.40
2021,10,25,17,19,6.40
2021,10,25,17,20,11.30
2021,10,25,17,21,14.50
2021,10,25,17,22,11.30
2021,10,25,17,23,11.30
2021,10,25,17,24,12.90
2021,10,25,17,25,9.60
2021,10,25,17,26,6.40
2021,10,25,17,27,6.40
2021,10,25,17,28,8.10
2021,10,25,17,29,6.40
2021,10,25,17,30,3.20
2021,10,25,17,31,9.60